Weather History for Pine Ridge, SD

Change the Weather History Date:

Wednesday, October 31, 2012

  Actual Average Record
Temperature  
Mean Temperature 48 °F 42 °F  
Max Temperature 71 °F 57 °F 86 °F (1999)
Min Temperature 24 °F 27 °F 5 °F (2002)
Degree Days  
Heating Degree Days 17 23  
Month to date heating degree days 608 532  
Since 1 July heating degree days 747 755  
Cooling Degree Days 0 0  
Month to date cooling degree days 2 3  
Year to date cooling degree days 1103 717  
Moisture  
Dew Point 31 °F    
Average Humidity 58    
Maximum Humidity 92    
Minimum Humidity 23    
Precipitation  
Precipitation 0.00 in 0.03 in 0.61 in (2000)
Month to date precipitation 0.74 1.20  
Year to date precipitation 10.23 16.60  
Sea Level Pressure  
Sea Level Pressure 30.06 in    
Wind  
Wind Speed 3 mph (NW)    
Max Wind Speed 14 mph    
Max Gust Speed 17 mph    
Visibility 10 miles    
Events      
T = Trace of Precipitation, MM = Missing Value Source: NWS Daily Summary

Daily Weather History Graph

Daily Weather History Graph

Search for Another Location

Airport:

Trip Planner

Search our weather history database for the weather conditions in past years. The results will help you decide how hot, cold, wet, or windy it might be!

Date:

Astronomy

Oct. 31, 2012 Rise Set
Actual Time 7:24 AM MDT 5:42 PM MDT
Civil Twilight 6:54 AM MDT 6:12 PM MDT
Nautical Twilight 6:20 AM MDT 6:45 PM MDT
Astronomical Twilight 5:47 AM MDT 7:18 PM MDT
Moon 6:52 PM MDT (10/31) 9:09 AM MDT (10/31)
Length of Visible Light 11h 17m
Length of Day
10h 18m
Full, 97% of the Moon is Illuminated
Oct 31
Full
Nov 6
Last Quarter
Nov 13
New
Nov 20
First Quarter
Nov 28
Full

Hourly Weather History & Observations

Time (MDT) Temp. Windchill Dew Point Humidity Pressure Visibility Wind Dir Wind Speed Gust Speed Precip Events Conditions
12:52 AM 32.0 °F 28.7 °F 30.0 °F 92% 30.06 in 10.0 mi ENE 3.5 mph - N/A   Clear
1:52 AM 32.0 °F - 30.0 °F 92% 30.05 in 10.0 mi Calm Calm - N/A   Clear
2:52 AM 30.0 °F - 28.0 °F 92% 30.04 in 10.0 mi Calm Calm - N/A   Clear
3:52 AM 28.0 °F - 27.0 °F 96% 30.04 in 10.0 mi Calm Calm - N/A   Clear
4:52 AM 26.1 °F - 25.0 °F 96% 30.04 in 10.0 mi Calm Calm - N/A   Clear
5:52 AM 27.0 °F - 25.0 °F 92% 30.06 in 10.0 mi Calm Calm - N/A   Clear
6:52 AM 26.1 °F - 24.1 °F 92% 30.08 in 10.0 mi Calm Calm - N/A   Clear
7:52 AM 28.0 °F - 24.1 °F 85% 30.11 in 10.0 mi Calm Calm - N/A   Clear
8:52 AM 36.0 °F - 33.1 °F 89% 30.11 in 10.0 mi Calm Calm - N/A   Clear
9:52 AM 48.0 °F - 39.0 °F 71% 30.10 in 10.0 mi Calm Calm - N/A   Clear
10:52 AM 55.9 °F - 37.0 °F 49% 30.08 in 10.0 mi WSW 6.9 mph - N/A   Clear
11:52 AM 61.0 °F - 37.0 °F 41% 30.07 in 10.0 mi West 12.7 mph - N/A   Clear
12:52 PM 64.9 °F - 36.0 °F 34% 30.04 in 10.0 mi WSW 9.2 mph - N/A   Clear
1:52 PM 68.0 °F - 33.1 °F 27% 30.01 in 10.0 mi West 11.5 mph - N/A   Clear
2:52 PM 71.1 °F - 32.0 °F 24% 29.99 in 10.0 mi West 6.9 mph - N/A   Clear
3:52 PM 70.0 °F - 30.9 °F 24% 30.01 in 10.0 mi WNW 5.8 mph - N/A   Partly Cloudy
4:52 PM 70.0 °F - 30.9 °F 24% 30.03 in 10.0 mi North 6.9 mph - N/A   Clear
5:52 PM 61.0 °F - 33.1 °F 35% 30.06 in 10.0 mi NNE 10.4 mph - N/A   Clear
6:52 PM 51.1 °F - 33.1 °F 50% 30.09 in 10.0 mi East 6.9 mph - N/A   Clear
7:52 PM 46.0 °F - 34.0 °F 63% 30.11 in 10.0 mi Calm Calm - N/A   Clear
8:52 PM 41.0 °F - 33.1 °F 73% 30.11 in 10.0 mi Calm Calm - N/A   Clear
9:52 PM 37.0 °F 33.3 °F 30.9 °F 79% 30.10 in 10.0 mi East 4.6 mph - N/A   Clear
10:52 PM 36.0 °F - 30.9 °F 82% 30.08 in 10.0 mi Calm Calm - N/A   Clear
11:52 PM 34.0 °F - 28.9 °F 82% 30.07 in 10.0 mi Calm Calm - N/A   Clear